Ste-Foy-Tarentaise, France 16 day weather forecast

Slopes altitude range 1550 m - 2620m

Number of lifts: 7 Pistes: 32km

In some cases the lift and piste totals shown are for the ski domain (e.g. Three Valleys) rather than individual resort (e.g. Courchevel)

Overview

The 16 day weather forecast is fully updated 4 times every day.

    • Sat 20 OCT 2018
    • Sat 20
    • 1C 8C
    • Sun 21 OCT 2018
    • Sun 21
    • 0C 10C
    • Mon 22 OCT 2018
    • Mon 22
    • 0C 5C
    • Tue 23 OCT 2018
    • Tue 23
    • -2C 6C
    • Wed 24 OCT 2018
    • Wed 24
    • -1C 8C
    • Thu 25 OCT 2018
    • Thu 25
    • 0C 10C
    • Fri 26 OCT 2018
    • Fri 26
    • -1C 7C
    • Sat 27 OCT 2018
    • Sat 27
    • -6C -1C
    • Sun 28 OCT 2018
    • Sun 28
    • -12C -5C
    • Mon 29 OCT 2018
    • Mon 29
    • -7C -2C
    • Tue 30 OCT 2018
    • Tue 30
    • -4C 5C
    • Wed 31 OCT 2018
    • Wed 31
    • 3C 7C
    • Thu 01 NOV 2018
    • Thu 01
    • -1C 2C
    • Fri 02 NOV 2018
    • Fri 02
    • -5C -1C
    • Sat 03 NOV 2018
    • Sat 03
    • -7C 3C
    • Sun 04 NOV 2018
    • Sun 04
    • -3C 6C

Date:

Time Type 0°C level Temp Chill Snow Cloud Speed Gust Dir Press
12:00 3433m 8°C 8_3 0cm 80% 3mph 4mph 1024mB
15:00 3448m 8°C 8_4 0cm 0% 4mph 5mph 1023mB
18:00 3619m 8°C 8_3 0cm 0% 3mph 4mph 1025mB
21:00 2945m 0°C 0_1 0cm 0% 1mph 1mph 1025mB
0:00 2999m 0°C 0_2 0cm 0% 2mph 3mph 1025mB
3:00 3754m 0°C 0_4 0cm 1% 4mph 5mph 1023mB
6:00 3021m 0°C 0_4 0cm 18% 4mph 5mph 1023mB
9:00 3880m 0°C 0_7 0cm 71% 7mph 8mph 1021mB
12:00 3880m 10°C 10_7 0cm 75% 7mph 8mph 1019mB
15:00 3909m 10°C 10_7 0cm 15% 7mph 8mph 1018mB
18:00 2796m 10°C 10_0 0cm 8% 0mph 1mph 1020mB
21:00 3116m -1°C -1_8 0cm 38% 8mph 9mph 1021mB
0:00 2907m -1°C -1_7 0cm 61% 7mph 7mph 1022mB
3:00 2900m 0°C 0_3 0cm 82% 3mph 4mph 1021mB
6:00 2674m 0°C 0_2 0cm 79% 2mph 3mph 1023mB
9:00 2773m 0°C 0_2 0cm 73% 2mph 2mph 1023mB
12:00 3090m 5°C 5_5 0cm 45% 5mph 6mph 1021mB
15:00 3029m 6°C 6_8 0cm 0% 8mph 8mph 1021mB
18:00 2404m 6°C 6_4 0cm 0% 4mph 5mph 1023mB
21:00 2358m -2°C -2_0 0cm 0% 0mph 1mph 1025mB
0:00 2439m -2°C -2_2 0cm 17% 2mph 2mph 1026mB
3:00 2411m -1°C -1_3 0cm 33% 3mph 3mph 1026mB
6:00 2277m -2°C -2_4 0cm 16% 4mph 5mph 1026mB
9:00 3374m -2°C -2_6 0cm 0% 6mph 7mph 1026mB
12:00 3185m 6°C 6_8 0cm 33% 8mph 9mph 1024mB
15:00 3044m 6°C 6_9 0cm 51% 9mph 10mph 1023mB
18:00 2315m 6°C 6_5 0cm 62% 5mph 6mph 1025mB
21:00 2398m -2°C -2_4 0cm 92% 4mph 5mph 1025mB
0:00 2453m -2°C -2_4 0cm 52% 4mph 5mph 1025mB
3:00 2516m -1°C -1_5 0cm 0% 5mph 6mph 1024mB
6:00 2503m -1°C -1_6 0cm 0% 6mph 6mph 1024mB
9:00 3884m -1°C -1_9 0cm 0% 9mph 10mph 1022mB
12:00 4046m 8°C 8_10 0cm 0% 10mph 10mph 1021mB
15:00 4256m 8°C 8_9 0cm 0% 9mph 10mph 1020mB
18:00 3123m 8°C 8_4 0cm 20% 4mph 5mph 1021mB
21:00 3086m -1°C -1_1 0cm 95% 1mph 3mph 1022mB
0:00 3124m -1°C -1_1 0cm 95% 1mph 2mph 1021mB
3:00 3144m -1°C -1_3 0cm 85% 3mph 4mph 1021mB
6:00 3122m -1°C -1_3 0cm 78% 3mph 4mph 1021mB
9:00 4203m 0°C 0_4 0cm 71% 4mph 4mph 1021mB
12:00 4129m 10°C 10_5 0cm 73% 5mph 6mph 1019mB
15:00 4098m 10°C 10_5 0cm 53% 5mph 6mph 1018mB
18:00 3103m 10°C 10_3 0cm 27% 3mph 4mph 1018mB
21:00 3102m 0°C 0_3 0cm 9% 3mph 4mph 1019mB
0:00 3094m 0°C 0_3 0cm 6% 3mph 4mph 1018mB
3:00 3068m 0°C 0_3 0cm 84% 3mph 5mph 1017mB
6:00 2469m -1°C -1_4 0cm 50% 4mph 5mph 1016mB
9:00 3677m -1°C -1_5 0cm 1% 5mph 5mph 1015mB
12:00 3243m 7°C 7_7 0cm 28% 7mph 8mph 1013mB
15:00 3160m 7°C 7_7 0cm 29% 7mph 8mph 1011mB
18:00 2631m 7°C 7_5 0cm 63% 5mph 6mph 1012mB
21:00 2376m -2°C -2_5 0cm 57% 5mph 6mph 1011mB
0:00 2348m -2°C -2_6 0cm 78% 6mph 7mph 1010mB
3:00 2453m -2°C -2_7 1cm 100% 7mph 8mph 1008mB
6:00 2461m -2°C -2_8 1cm 100% 8mph 9mph 1008mB
9:00 2115m -4°C -4_10 4cm 100% 10mph 12mph 1008mB
12:00 1724m -1°C -1_9 3cm 100% 9mph 10mph 1007mB
15:00 1652m -6°C -6_9 1cm 100% 9mph 10mph 1006mB
18:00 1324m -6°C -6_7 1cm 100% 7mph 8mph 1007mB
21:00 1089m -7°C -7_6 1cm 94% 6mph 8mph 1010mB
0:00 940m -8°C -8_4 1cm 94% 4mph 6mph 1010mB
3:00 761m -9°C -9_4 1cm 93% 4mph 6mph 1010mB
6:00 357m -12°C -12_3 1cm 89% 3mph 4mph 1011mB
9:00 1159m -12°C -12_4 0cm 92% 4mph 5mph 1010mB
12:00 1283m -5°C -5_4 1cm 95% 4mph 4mph 1010mB
15:00 1214m -6°C -6_5 2cm 98% 5mph 6mph 1011mB
18:00 995m -6°C -6_4 2cm 99% 4mph 7mph 1012mB
21:00 916m -8°C -8_4 3cm 100% 4mph 6mph 1012mB
0:00 1093m -8°C -8_3 2cm 100% 3mph 4mph 1013mB
3:00 896m -8°C -8_5 0cm 98% 5mph 5mph 1013mB
6:00 1061m -8°C -8_4 1cm 98% 4mph 5mph 1014mB
9:00 1499m -7°C -7_4 3cm 100% 4mph 6mph 1015mB
12:00 1869m -2°C -2_3 2cm 100% 3mph 4mph 1017mB
15:00 1874m -1°C -1_1 0cm 98% 1mph 3mph 1018mB
18:00 987m -1°C -1_6 0cm 81% 6mph 7mph 1022mB
21:00 912m -8°C -8_8 0cm 0% 8mph 9mph 1025mB
0:00 934m -8°C -8_8 0cm 15% 8mph 8mph 1026mB
3:00 1226m -8°C -8_7 0cm 97% 7mph 8mph 1026mB
6:00 1251m -8°C -8_7 0cm 94% 7mph 7mph 1026mB
Afternoon 0.0885417mm 0 2908m 5°C 5_8 0cm 82% 8mph 13mph 1023mB
Morning 0.00520833mm 0 3325m 2°C 2_10 0cm 35% 10mph 15mph 1019mB
Afternoon 1.29688mm 0.3125 3290m 7°C 7_10 0cm 94% 10mph 16mph 1007mB
Morning 1.30729mm 3.6875 2305m 1°C 1_5 0cm 98% 5mph 7mph 1010mB
Afternoon 1.06771mm 0.0625 1799m 2°C 2_8 9cm 100% 8mph 12mph 1017mB
Morning 0.151042mm 0 1459m -3°C -3_7 1cm 98% 7mph 11mph 1022mB
Afternoon 0.0364583mm 0 1066m -1°C -1_3 0cm 69% 3mph 5mph 1026mB
Morning 0mm 0 791m -7°C -7_3 0cm 28% 3mph 4mph 1029mB
Afternoon 0mm 0 1338m 3°C 3_3 0cm 8% 3mph 3mph 1026mB
Morning 0mm 0 1413m -4°C -4_4 0cm 26% 4mph 5mph 1024mB
Afternoon 0mm 0 2447m 6°C 6_5 0cm 26% 5mph 6mph 1019mB
Morning 0mm 0 2239m -1°C -1_5 0cm 5% 5mph 6mph 1018mB

16 day outlook at a glance

Forecast issued: 21/10/2018 03:04:56

Chat

Your comments and questions. In a resort? Let us know what it's like!


Characters left 250

For terms and conditions see Readers Comments on the Cookie and privacy policy page.